Volver al catálogo

STARLINK-3254

ActivoComunicacionesVLEO
NORAD 50204·PAYLOAD·🇺🇸 United States

Lanzado Dec 18, 2021 desde Vandenberg Space Force Base

Loading…

Próximos Pases (próximas 24 horas)

TLE

ActualizadoSource: CelesTrak SupGP

Época: Sep 14, 2026, 13:53 UTC

1 50204C 21125BA  26257.57895833  .00011824  00000+0  38015-3 0  2574
2 50204  53.1578 100.5092 0001274  89.9672  16.2490 15.31703726    12

Sigue STARLINK-3254 en tiempo real con AllMySat

Download on the App Store